Weather History for Ft Lauderdale, FL

Change the Weather History Date:

Wednesday, April 24, 2013

  Actual Average Record
Temperature  
Mean Temperature 78 °F 77 °F  
Max Temperature 83 °F 84 °F 92 °F (1971)
Min Temperature 73 °F 71 °F 56 °F (1998)
Degree Days  
Heating Degree Days 0 0  
Month to date heating degree days 0 0  
Since 1 July heating degree days 85 111  
Cooling Degree Days 13 12  
Month to date cooling degree days 304 261  
Year to date cooling degree days 893 871  
Growing Degree Days 28 (Base 50)    
Moisture  
Dew Point 63 °F    
Average Humidity 62    
Maximum Humidity 69    
Minimum Humidity 55    
Precipitation  
Precipitation 0.00 in 0.09 in 7.60 in (1982)
Month to date precipitation 5.51 2.46  
Year to date precipitation 8.72 12.41  
Snow  
Snow 0.00 in - - ()
Month to date snowfall 0.0  
Since 1 July snowfall 0.0  
Snow Depth 0.00 in    
Sea Level Pressure  
Sea Level Pressure 30.09 in    
Wind  
Wind Speed 12 mph (East)    
Max Wind Speed 17 mph    
Max Gust Speed 22 mph    
Visibility 10 miles    
Events      
T = Trace of Precipitation, MM = Missing Value Source: NWS Daily Summary

Daily Weather History Graph

Daily Weather History Graph

Search for Another Location

Airport:

Trip Planner

Search our weather history database for the weather conditions in past years. The results will help you decide how hot, cold, wet, or windy it might be!

Date:

Astronomy

Apr. 24, 2013 Rise Set
Actual Time 6:48 AM EDT 7:48 PM EDT
Civil Twilight 6:25 AM EDT 8:12 PM EDT
Nautical Twilight 5:56 AM EDT 8:41 PM EDT
Astronomical Twilight 5:27 AM EDT 9:10 PM EDT
Moon 6:53 PM EDT (4/24) 5:44 AM EDT (4/24)
Length of Visible Light 13h 47m
Length of Day
12h 59m
Waxing Gibbous, 98% of the Moon is Illuminated
Apr 24
Waxing Gibbous
Apr 25
Full
May 2
Last Quarter
May 9
New
May 18
First Quarter

Hourly Weather History & Observations

Time (EDT) Temp. Heat Index Dew Point Humidity Pressure Visibility Wind Dir Wind Speed Gust Speed Precip Events Conditions
12:53 AM 75.0 °F - 60.1 °F 60% 30.08 in 10.0 mi ENE 8.1 mph - N/A   Mostly Cloudy
1:53 AM 75.0 °F - 60.1 °F 60% 30.06 in 10.0 mi ENE 11.5 mph - N/A   Mostly Cloudy
2:53 AM 73.9 °F - 60.1 °F 62% 30.04 in 10.0 mi East 16.1 mph 20.7 mph N/A   Scattered Clouds
3:53 AM 73.9 °F - 60.1 °F 62% 30.04 in 10.0 mi East 9.2 mph - N/A   Mostly Cloudy
4:53 AM 75.0 °F - 62.1 °F 64% 30.04 in 10.0 mi East 5.8 mph - N/A   Mostly Cloudy
5:53 AM 73.9 °F - 61.0 °F 64% 30.06 in 10.0 mi East 11.5 mph - N/A   Scattered Clouds
6:53 AM 73.9 °F - 61.0 °F 64% 30.07 in 10.0 mi East 11.5 mph - N/A   Scattered Clouds
7:53 AM 75.9 °F - 61.0 °F 60% 30.09 in 10.0 mi ENE 11.5 mph - N/A   Mostly Cloudy
8:53 AM 77.0 °F - 61.0 °F 58% 30.11 in 10.0 mi East 13.8 mph - N/A   Scattered Clouds
9:53 AM 78.1 °F - 62.1 °F 58% 30.12 in 10.0 mi East 12.7 mph - N/A   Mostly Cloudy
10:53 AM 80.1 °F 81.7 °F 64.0 °F 58% 30.13 in 10.0 mi East 11.5 mph 18.4 mph N/A   Scattered Clouds
11:53 AM 81.0 °F 82.7 °F 64.9 °F 58% 30.12 in 10.0 mi East 15.0 mph 19.6 mph N/A   Scattered Clouds
12:53 PM 81.0 °F 82.5 °F 64.0 °F 56% 30.11 in 10.0 mi East 13.8 mph - N/A   Mostly Cloudy
1:53 PM 81.0 °F 82.7 °F 64.9 °F 58% 30.10 in 10.0 mi East 9.2 mph 17.3 mph N/A   Partly Cloudy
2:53 PM 82.0 °F 83.8 °F 64.9 °F 56% 30.08 in 10.0 mi ESE 12.7 mph 17.3 mph N/A   Partly Cloudy
3:53 PM 80.1 °F 81.9 °F 64.9 °F 60% 30.07 in 10.0 mi East 10.4 mph - N/A   Scattered Clouds
4:53 PM 80.1 °F 81.9 °F 64.9 °F 60% 30.06 in 10.0 mi ESE 11.5 mph 17.3 mph N/A   Scattered Clouds
5:53 PM 79.0 °F - 66.0 °F 64% 30.08 in 10.0 mi ENE 11.5 mph - N/A   Scattered Clouds
6:53 PM 79.0 °F - 64.9 °F 62% 30.08 in 10.0 mi ENE 10.4 mph - N/A   Scattered Clouds
7:53 PM 78.1 °F - 64.9 °F 64% 30.10 in 10.0 mi NE 12.7 mph - N/A   Partly Cloudy
8:53 PM 77.0 °F - 63.0 °F 62% 30.11 in 10.0 mi East 10.4 mph - N/A   Partly Cloudy
9:53 PM 75.9 °F - 63.0 °F 64% 30.13 in 10.0 mi East 11.5 mph - N/A   Partly Cloudy
10:53 PM 75.9 °F - 64.0 °F 67% 30.13 in 10.0 mi East 12.7 mph - N/A   Partly Cloudy
11:53 PM 75.9 °F - 60.1 °F 58% 30.13 in 10.0 mi East 11.5 mph - N/A   Partly Cloudy